Location: Newark
(15.4608°S, 41.1635°W)
Time: 14:39:01
(UTC+00:00)

Envisat - Pass Details

Date: 18 June 2021
Orbit: 764 x 766 km, 98.1° (Epoch: 25 July)

Event Time Altitude Azimuth Distance (km) Brightness Sun altitude
Rises 07:16:47 0° 22° (NNE) 3,211 6.8 -26.2°
Reaches altitude 10° 07:19:07 10° 27° (NNE) 2,291 6.0 -25.6°
Maximum altitude 07:24:02 55° 103° (ESE) 920 3.6 -24.5°
Enters shadow 07:27:57 16° 177° (S) 1,906 4.9 -23.6°
